Terminal Aerodrome Forecast
Issued by NWS Wilmington, OH

Current Version | Previous Version | Text Only | Print | Product List | Glossary Off
Versions: 1 2 3 4 5 6 7 8 9 10 11 12 13 14 15 16 17 18 19 20 21 22 23 24 25 26 27 28 29 30 31 32 33

000
FTUS41 KILN 031734
TAFCMH
TAF
KCMH 031734Z 0318/0418 31007KT P6SM VCTS BKN050CB
      TEMPO 0318/0319 -TSRA OVC035CB
     FM040000 VRB03KT P6SM SCT050
     FM040400 VRB03KT P6SM VCTS SCT040CB BKN120
     FM041300 18005KT P6SM VCTS BKN040CB=

USA.gov is the U.S. government's official web portal to all federal, state and local government web resources and services.